This is the latest recevied weather packets stored in our database for station/object K7KRJ-10. If no packets are shown the sender has not sent any weather packets the latest 10 day(s).
| Time | Temp. | Humidity | Pressure | Rain* | Wind** | Luminosity | Snow |
|---|---|---|---|---|---|---|---|
| 1777917842 | 22.22° C | 45% | 1011.9 hPa | 0 mm | - | 449 W/m² | - |
| 1777916940 | 22.22° C | 47% | 1011.5 hPa | 0 mm | - | 468 W/m² | - |
| 1777916037 | 21.11° C | 48% | 1010.6 hPa | 0 mm | - | 341 W/m² | - |
| 1777915132 | 21.67° C | 48% | 1011.2 hPa | 0 mm | - | 309 W/m² | - |
| 1777914230 | 21.11° C | 48% | 1011.5 hPa | 0 mm | - | 294 W/m² | - |
| 1777913325 | 21.11° C | 47% | 1011.7 hPa | 0 mm | - | 330 W/m² | - |
| 1777912420 | 21.67° C | 48% | 1011.2 hPa | 0 mm | - | 258 W/m² | - |
| 1777911515 | 21.11° C | 47% | 1011.6 hPa | 0 mm | - | 256 W/m² | - |
| 1777910611 | 21.67° C | 45% | 1011.4 hPa | 0 mm | - | 246 W/m² | - |
| 1777909708 | 21.11° C | 44% | 1011.2 hPa | 0 mm | - | 203 W/m² | - |
| 1777908807 | 21.67° C | 43% | 1011 hPa | 0 mm | - | 185 W/m² | - |
| 1777907902 | 21.67° C | 42% | 1010.7 hPa | 0 mm | - | 158 W/m² | - |
| 1777907002 | 21.67° C | 41% | 1010.9 hPa | 0 mm | - | 153 W/m² | - |
| 1777906098 | 21.67° C | 39% | 1010.3 hPa | 0 mm | - | 139 W/m² | - |
| 1777905195 | 22.22° C | 38% | 1010 hPa | 0 mm | - | 104 W/m² | - |
| 1777904292 | 22.22° C | 38% | 1010.3 hPa | 0 mm | - | 91 W/m² | - |
| 1777903387 | 22.22° C | 38% | 1009.9 hPa | 0 mm | - | 65 W/m² | - |
| 1777902484 | 22.22° C | 36% | 1010.2 hPa | 0 mm | - | 52 W/m² | - |
| 1777901582 | 22.22° C | 36% | 1009.7 hPa | 0 mm | - | 37 W/m² | - |
| 1777900679 | 21.67° C | 37% | 1009.9 hPa | 0 mm | - | 21 W/m² | - |
| 1777899775 | 22.22° C | 38% | 1009.4 hPa | 0 mm | - | 11 W/m² | - |
| 1777898874 | 21.67° C | 39% | 1009.7 hPa | 0 mm | - | 4 W/m² | - |
| 1777897971 | 21.67° C | 38% | 1009.2 hPa | 0 mm | - | 1 W/m² | - |
| 1777897071 | 21.67° C | 38% | 1009 hPa | 0 mm | - | 0 W/m² | - |
| 1777896168 | 22.22° C | 37% | 1008.9 hPa | 0 mm | - | 0 W/m² | - |
* Rain latest hour (hover to see other rain measurements)
** Current wind speed in m/s (hover to see current wind gust speed)